Location: Buckeye Ditch
(40.9104°N, 122.9517°W)
Time: 01:47:06
(UTC+00:00)

SR - Pass Details

Date: 26 May 2025
Orbit: 570 x 855 km, 66.7° (Epoch: 11 June)

Event Time Altitude Azimuth Distance (km) Brightness Sun altitude
Exits shadow 07:44:08 22° 259° (W) 1,762 ? -27.6°
Maximum altitude 07:47:03 36° 309° (NW) 1,328 ? -27.7°
Drops below altitude 10° 07:52:19 10° 15° (NNE) 2,469 ? -27.8°
Sets 07:54:58 0° 24° (NNE) 3,382 ? -27.8°
